Location: Madrid
(40.4000°N, 3.6830°W)
Time: 23:06:58
(UTC+02:00)

ISS - Pass Details

Date: 21 May 2019
Orbit: 408 x 418 km, 51.6° (Epoch: 26 May)

Event Time Altitude Azimuth Distance (km) Brightness Sun altitude
Rises 00:15:51 0° 283° (WNW) 2,349 0.7 -23.8°
Reaches altitude 10° 00:18:35 10° 308° (NW) 1,490 -0.1 -24.1°
Maximum altitude 00:20:40 15° 346° (NNW) 1,211 -0.6 -24.3°
Drops below altitude 10° 00:22:45 10° 25° (NNE) 1,496 -0.5 -24.5°
Sets 00:25:30 0° 49° (NE) 2,362 0.2 -24.7°
